Theta_e
321 312 316 324 325 326 328 330 330 337 337 334 335 334 333 333 333 338 337 339 338 326 325 324 323 322 319 319 319 318 317 317 316 316 315 315 314 314 314 314 314 313 317 317 313 314 312 311 312
316 320 326 327 326 329 329 328 335 337 336 337 334 335 331 336 337 337 338 336 336 328 325 324 323 322 319 319 320 319 318 317 317 316 316 316 315 315 315 316 318 321 323 319 322 323 324 323 316
312 321 322 324 329 331 329 332 336 338 339 338 334 332 332 333 338 339 338 336 336 333 326 325 323 322 319 319 320 319 318 318 318 317 317 316 316 315 316 318 321 322 324 324 324 324 325 326 323
319 323 325 328 333 333 332 332 337 338 337 337 336 332 332 333 333 336 337 337 336 334 333 326 324 323 320 319 319 319 318 318 318 318 318 318 317 316 318 322 325 326 325 324 328 331 332 332 329
324 326 323 328 331 333 331 330 336 338 338 337 335 335 333 332 332 332 334 337 336 336 335 332 325 323 320 320 320 319 319 318 319 319 320 320 319 318 317 320 326 331 332 325 323 326 329 330 330
324 327 327 329 330 331 331 332 331 332 331 331 333 334 333 332 333 333 332 333 336 336 336 335 333 324 322 320 320 320 319 319 319 319 320 320 320 320 318 317 319 328 332 324 321 322 322 326 328
322 322 326 327 329 331 331 331 329 330 330 331 332 332 333 333 332 332 331 332 331 335 336 335 335 333 324 322 321 321 320 319 319 319 319 320 321 321 321 319 319 325 329 327 326 324 322 321 321
325 322 325 326 330 331 332 332 331 331 330 331 331 331 332 333 331 332 331 331 332 334 336 336 335 335 334 328 322 321 322 321 320 320 320 320 321 321 321 321 322 329 330 329 328 328 322 316 315
328 321 323 326 328 330 331 330 331 332 331 332 332 332 332 331 331 331 331 331 331 332 334 336 336 336 335 335 330 323 322 322 322 320 321 322 322 321 321 322 323 328 330 330 330 329 318 318 318
333 322 322 323 326 328 329 330 331 331 332 332 332 332 332 332 331 331 331 330 330 329 330 334 336 336 336 336 336 332 322 322 323 322 321 322 323 322 322 323 323 329 331 331 330 329 328 329 328
330 329 325 325 326 327 329 329 330 331 331 333 332 332 332 332 332 331 330 330 330 329 329 331 335 336 337 337 337 335 326 321 322 323 323 322 323 324 326 326 328 332 334 332 331 330 329 329 329
327 328 328 327 326 327 327 329 330 331 331 331 331 331 330 332 331 332 330 330 330 329 329 328 332 335 337 338 336 336 336 331 322 323 324 323 322 326 329 328 327 334 333 332 331 330 329 329 329
325 324 326 328 328 328 328 328 329 330 331 331 331 330 329 329 330 331 331 330 330 330 329 328 328 332 337 338 337 336 336 337 336 333 330 326 324 331 333 327 331 333 333 333 331 331 329 329 329
321 326 326 326 328 329 329 329 329 330 330 329 329 330 329 329 330 331 331 330 330 329 328 328 327 330 336 337 337 336 336 337 338 339 337 333 336 337 334 330 333 335 334 333 332 332 331 330 329
320 321 322 325 326 325 326 327 327 327 328 329 330 329 329 329 329 330 330 330 330 330 328 328 328 330 336 337 337 337 338 338 339 340 340 339 339 337 331 333 335 332 333 333 331 330 330 330 328
319 319 321 322 323 325 325 327 327 328 328 329 329 329 329 329 328 329 329 330 330 329 327 327 329 328 333 337 338 341 341 341 340 342 341 340 337 334 331 330 332 333 332 329 333 332 330 329 329
319 320 321 322 323 324 325 327 327 328 328 328 328 329 329 329 329 329 329 329 328 328 328 327 329 328 331 335 338 340 341 341 342 341 339 336 334 333 332 332 329 330 330 332 334 331 329 328 328
321 322 322 322 323 325 325 326 326 327 327 327 328 329 329 329 329 329 327 327 328 327 328 329 329 329 332 335 339 341 340 342 342 338 335 334 333 332 334 333 333 333 330 332 331 330 329 328 328
319 322 323 323 323 324 324 325 325 326 327 326 327 327 328 328 329 327 327 328 329 327 327 330 329 330 333 337 341 343 341 342 343 340 334 331 332 333 334 334 334 332 330 331 330 329 328 329 327
317 317 318 320 323 323 324 324 325 326 326 326 327 327 328 329 328 327 327 328 329 328 331 332 332 335 336 339 343 344 343 343 342 339 333 332 333 333 334 331 331 332 330 327 327 328 328 328 326
315 316 316 317 318 320 321 321 322 323 325 327 328 328 328 328 328 328 327 327 328 330 331 332 333 335 338 344 346 344 344 342 338 335 332 332 333 333 333 332 329 330 328 327 327 327 327 327 326
316 316 317 317 318 318 320 322 322 322 324 325 326 327 328 327 326 326 327 327 331 332 333 333 336 342 345 346 344 342 341 337 333 333 333 333 333 333 332 332 330 328 326 327 326 326 326 326 324
316 317 317 318 318 318 320 320 322 322 325 324 323 326 327 327 327 328 327 328 332 333 333 333 335 340 343 344 343 339 337 334 334 333 333 332 332 332 333 332 327 325 325 325 325 325 324 324 324
315 316 317 317 317 318 319 320 321 321 322 324 324 326 326 326 327 328 332 334 336 335 334 335 336 340 343 342 339 335 332 332 333 333 331 332 332 331 329 328 327 327 326 324 324 325 325 324 324
312 313 315 317 318 319 318 321 322 321 323 324 323 325 327 328 330 332 336 337 337 336 336 336 338 341 340 335 334 333 333 333 332 332 331 332 330 329 325 326 327 328 326 326 326 325 326 325 326
310 313 315 318 319 318 319 320 321 322 323 324 324 326 331 335 335 337 338 338 337 337 336 336 337 337 335 335 333 333 334 331 330 330 331 331 330 327 326 326 327 325 327 328 327 327 326 326 325
310 310 315 316 318 318 319 319 320 320 321 324 324 327 337 338 338 338 338 337 338 338 336 335 336 335 334 334 333 333 329 332 332 332 330 327 327 327 325 326 326 328 328 326 327 325 326 325 325
314 312 315 315 317 319 321 320 321 323 324 323 325 328 337 338 338 337 337 337 338 337 336 335 334 332 333 332 333 333 334 334 331 330 329 327 329 330 327 325 326 326 326 326 326 326 325 325 325
315 312 312 314 315 319 321 321 322 324 324 324 325 335 336 337 337 336 337 337 337 337 337 336 334 333 333 332 333 332 331 331 332 330 330 328 329 329 327 327 328 328 327 327 325 326 325 324 323
313 314 312 314 317 318 319 321 327 329 326 325 333 335 336 336 336 337 337 337 337 337 336 335 334 333 332 333 333 331 330 330 331 330 329 327 328 327 328 329 328 327 329 325 327 326 326 323 323
Wind_Speed
6 4 6 1 2 2 4 8 7 14 9 15 11 7 2 11 6 5 18 18 13 11 14 14 13 13 13 12 12 11 10 8 5 3 2 3 3 4 4 4 4 4 5 4 4 4 4 5 5
5 8 3 3 2 2 5 10 4 4 5 25 8 4 7 8 26 21 25 16 13 6 12 13 15 15 14 13 13 12 11 9 7 4 2 1 2 3 5 5 5 5 5 5 6 7 7 7 6
12 8 4 4 4 6 5 5 3 5 15 38 11 5 3 8 19 17 16 18 12 7 11 14 15 15 15 14 15 14 12 11 8 6 2 0 2 4 5 5 5 5 6 7 8 9 10 10 8
8 5 6 1 10 12 12 13 7 5 11 23 19 4 7 9 9 16 10 10 9 8 7 16 16 16 16 16 16 15 14 12 10 7 4 2 3 4 6 6 6 6 7 9 9 11 12 12 10
5 4 2 5 9 11 15 20 20 11 14 35 10 6 14 20 16 9 8 9 8 12 10 10 18 19 18 19 18 17 16 14 12 10 7 5 5 6 7 7 7 8 9 10 11 12 15 16 15
5 5 2 6 10 16 16 25 4 8 5 14 5 9 9 17 16 9 4 5 13 16 21 19 18 22 21 21 22 20 19 17 16 13 11 9 8 9 9 10 10 10 11 14 14 15 17 18 17
4 3 6 8 12 17 15 12 9 4 8 9 11 7 19 20 11 6 3 7 7 18 24 26 23 22 23 24 24 24 22 21 20 18 16 13 12 12 12 11 11 9 10 11 11 14 17 19 20
7 2 5 7 12 17 20 14 0 5 10 1 9 2 2 15 4 8 8 4 8 22 24 28 27 27 24 26 28 27 26 25 25 23 20 18 17 15 14 14 10 10 9 12 13 14 15 16 16
18 3 6 12 11 16 28 13 22 14 11 14 8 11 16 19 21 1 2 10 6 13 25 30 29 27 29 26 28 30 30 29 29 28 25 23 21 18 16 14 10 9 10 11 11 13 10 10 13
16 8 14 13 14 17 20 15 27 22 14 8 19 18 15 21 13 13 14 11 13 17 24 25 28 29 32 27 24 30 32 34 35 34 30 28 24 21 17 14 11 8 9 10 11 11 5 6 8
23 21 15 19 28 30 23 23 28 21 14 17 11 11 24 30 33 19 14 15 15 20 23 22 24 28 35 28 26 26 30 35 38 38 33 31 27 24 19 12 11 9 11 12 10 9 9 8 5
19 28 27 26 32 33 22 30 25 28 24 30 30 36 32 24 27 23 15 16 18 21 26 21 18 25 37 32 29 27 24 28 38 39 35 34 30 25 19 13 14 13 14 13 11 12 13 13 10
25 20 28 32 33 36 37 30 27 32 38 40 38 37 40 36 33 29 24 21 19 26 26 21 22 24 34 38 33 29 26 26 26 25 31 36 30 24 18 17 15 15 15 14 10 11 15 17 16
24 23 29 30 34 35 28 28 31 33 34 33 32 30 33 33 29 31 31 28 27 26 21 18 21 22 32 38 36 32 28 27 25 23 23 25 23 19 18 16 14 17 19 20 17 15 16 18 20
28 19 19 25 29 25 29 28 32 35 33 34 35 38 41 37 30 31 32 37 38 22 14 20 20 21 30 36 37 34 31 28 26 24 21 21 21 18 17 19 21 21 20 20 20 23 24 23 18
17 13 21 21 20 30 21 41 20 32 35 31 41 44 42 37 35 39 35 27 34 18 16 22 22 24 27 31 38 35 29 26 25 21 23 24 21 19 19 19 21 21 21 22 19 19 23 24 19
13 20 22 24 23 17 13 30 21 33 32 37 44 44 44 44 39 30 31 28 25 26 25 24 26 27 27 27 37 40 32 29 24 27 26 23 19 19 18 17 17 16 20 22 23 22 20 20 19
11 21 24 29 13 17 23 29 31 45 34 35 38 35 36 35 39 31 26 32 36 25 22 24 25 27 27 27 34 38 35 29 27 21 19 21 17 17 17 15 14 17 22 22 22 22 19 17 18
12 22 22 16 19 18 23 22 27 24 18 20 30 30 34 38 26 26 28 23 26 24 24 18 25 27 28 30 33 34 33 30 26 24 16 15 16 16 13 13 17 24 25 25 21 19 19 19 17
21 22 23 14 13 14 21 18 24 22 18 31 33 33 34 34 32 27 27 23 21 23 17 21 24 26 28 29 31 28 25 27 24 20 18 18 18 17 17 15 20 24 24 21 18 17 17 17 15
25 25 19 21 12 22 15 16 20 20 16 23 26 27 30 23 22 25 26 29 27 21 20 22 22 23 26 27 24 19 20 17 15 19 20 18 18 19 17 17 19 20 19 17 13 15 15 15 14
23 17 23 21 13 18 7 18 25 16 17 16 23 32 36 33 33 35 32 31 20 21 20 18 18 23 23 22 21 22 20 19 16 16 17 16 18 17 18 18 17 16 11 10 8 9 11 11 13
25 14 19 14 17 16 17 10 26 11 12 6 10 24 27 25 30 28 29 30 24 22 19 15 19 22 21 20 19 20 21 18 13 17 16 13 14 16 16 17 14 8 7 7 6 7 9 11 13
17 17 19 14 12 11 20 15 30 16 14 9 10 24 26 29 36 29 15 21 26 20 16 16 18 22 23 20 22 20 18 16 15 14 12 9 10 14 14 12 7 4 5 5 4 4 5 7 8
15 11 7 9 10 17 14 13 22 6 14 18 14 21 26 24 11 18 26 29 25 21 18 17 20 25 24 21 19 20 18 14 17 15 11 13 10 8 6 7 5 4 5 3 1 0 0 2 2
13 14 10 13 13 16 12 10 10 17 16 32 30 26 9 19 27 33 32 29 24 21 19 22 28 26 26 20 18 18 16 15 11 9 9 9 7 3 6 5 3 3 3 4 3 2 1 2 2
21 17 18 17 11 7 7 14 22 27 22 15 8 9 29 32 33 31 27 25 23 20 23 29 25 26 26 21 19 13 11 10 10 8 5 3 2 5 5 3 3 2 2 3 5 4 2 2 4
10 12 6 11 14 14 6 10 11 10 19 18 10 11 27 35 33 31 28 26 22 23 25 24 23 26 21 17 15 11 10 8 5 4 4 6 7 5 2 3 2 1 2 3 4 4 2 3 3
10 14 11 6 10 12 5 9 15 16 14 14 10 27 33 36 36 33 31 26 24 26 24 22 22 21 19 17 14 13 12 7 5 3 4 8 8 5 5 5 3 3 3 3 3 4 7 3 3
14 20 16 9 13 10 4 9 2 4 9 12 19 30 34 39 36 34 32 28 29 27 23 22 20 20 16 17 14 11 9 7 9 5 5 4 12 9 5 2 3 4 7 5 3 6 7 7 2
Wind_Direction
253 193 163 128 22 186 249 259 246 28 37 28 56 50 345 63 98 156 142 164 171 164 166 173 179 187 184 176 168 166 164 162 153 134 94 40 16 356 338 342 322 295 287 277 271 288 293 287 273
198 156 169 271 184 262 268 253 294 116 127 307 322 216 85 83 108 124 153 164 186 146 182 189 188 191 189 184 183 178 174 173 172 165 139 44 5 351 337 334 318 287 274 269 287 296 294 293 283
179 165 285 176 215 203 236 298 44 47 338 331 324 55 41 103 121 133 139 163 191 203 199 198 195 196 196 194 193 188 184 186 188 188 188 303 343 339 330 318 301 276 269 276 282 287 294 295 286
163 187 245 252 255 263 252 270 50 60 90 270 287 54 86 116 102 119 144 172 193 219 232 209 205 205 207 203 203 199 194 196 200 206 218 259 314 331 320 304 293 283 281 278 277 280 283 281 284
196 252 228 234 257 267 273 271 172 176 190 214 174 251 132 108 109 98 114 173 204 209 249 223 218 216 212 212 211 210 207 205 210 216 229 250 285 310 314 303 292 284 282 293 280 269 265 266 268
254 227 274 240 260 260 268 276 132 187 324 345 123 186 118 133 127 121 311 224 233 222 207 229 225 218 218 217 216 216 217 216 219 222 232 245 268 290 303 306 299 290 281 293 290 278 270 266 264
243 327 237 261 267 280 276 328 63 11 343 41 48 102 139 153 160 186 208 201 255 240 218 212 231 224 223 226 223 221 219 224 226 228 234 245 258 272 285 296 290 291 296 299 299 290 279 272 267
233 203 288 271 271 279 284 325 43 282 251 140 74 23 113 157 223 202 154 217 267 240 233 222 221 238 229 228 226 226 224 225 231 232 236 243 252 262 276 289 281 283 300 319 316 301 286 278 274
232 229 254 252 253 264 297 312 326 309 303 302 315 319 319 308 297 28 286 336 313 264 241 241 230 235 231 234 231 229 228 228 232 235 238 243 250 257 269 274 276 294 311 328 330 330 292 281 276
225 225 228 243 259 274 289 309 293 305 308 315 296 306 290 299 291 276 278 288 304 296 286 250 232 236 235 230 233 231 231 232 232 234 237 245 249 255 264 269 281 298 309 310 318 330 326 312 300
229 239 242 253 258 271 283 292 295 296 295 287 293 233 280 269 289 279 266 272 275 280 278 271 245 236 240 225 237 231 229 235 236 236 237 244 247 250 249 260 273 273 280 273 282 296 299 296 276
240 236 238 249 256 269 274 282 284 286 282 295 297 295 292 277 289 286 253 265 257 263 271 276 254 247 241 223 239 247 236 237 237 237 240 243 243 246 246 251 260 258 264 273 275 286 286 282 267
235 243 244 247 249 254 264 265 266 269 279 284 283 287 288 289 284 272 280 271 264 269 257 265 276 255 245 227 235 247 249 249 239 239 244 242 242 242 245 245 239 244 254 260 257 274 280 276 268
262 251 246 245 248 254 257 263 265 260 266 281 283 285 291 285 288 282 274 275 264 268 252 268 265 257 245 236 238 248 247 255 248 242 239 231 231 241 250 244 245 243 256 261 266 256 251 255 258
266 272 277 255 245 250 263 271 259 272 277 281 282 289 286 276 281 284 273 274 272 255 252 276 268 254 239 240 239 241 239 244 245 242 238 230 230 237 251 240 240 251 256 259 261 252 257 263 265
264 275 258 258 258 256 255 262 270 270 273 279 282 276 273 269 265 269 280 293 264 231 263 286 261 252 241 233 232 226 224 232 236 230 222 224 227 245 257 255 248 250 263 269 266 270 259 255 256
231 238 250 255 241 247 237 267 269 269 262 258 259 262 264 264 256 264 271 278 250 259 268 277 261 251 242 234 226 220 216 217 211 210 212 221 233 253 263 269 261 268 269 270 273 278 261 254 252
216 223 234 246 242 237 238 250 263 264 261 256 261 259 257 264 256 254 264 274 268 243 255 270 251 245 238 233 225 214 216 215 213 212 218 226 239 252 261 277 273 272 279 273 276 275 258 254 252
260 236 245 247 237 257 254 260 269 265 258 264 275 268 273 258 241 244 265 270 244 251 260 255 244 234 231 224 219 205 213 214 210 223 213 230 242 248 260 261 270 278 278 282 278 266 256 251 248
246 264 261 271 249 251 257 254 255 253 256 253 253 255 264 266 247 257 256 262 266 253 248 239 229 225 224 223 218 213 209 212 225 232 219 233 241 244 249 263 268 270 282 283 281 270 259 257 238
229 240 254 258 287 284 298 292 278 281 274 264 256 260 264 250 241 249 257 276 254 245 249 228 228 226 218 213 200 192 194 204 218 217 215 228 237 239 256 261 278 284 284 288 274 262 258 257 238
242 233 239 254 252 257 248 271 265 269 266 261 267 267 265 263 264 266 261 260 236 227 219 224 215 196 196 197 191 188 188 195 200 201 214 218 235 246 261 263 282 289 283 287 278 258 251 247 236
250 236 251 241 241 258 252 262 267 211 238 270 267 255 259 264 255 245 249 245 219 217 216 210 193 188 191 184 188 182 185 186 174 208 228 218 227 252 259 274 287 290 291 293 287 270 260 250 249
262 242 251 259 258 260 238 233 266 243 248 243 257 265 269 269 263 237 204 190 186 189 190 183 172 170 176 179 177 178 176 188 186 188 204 216 250 269 265 263 244 281 299 284 280 270 252 246 246
258 225 245 237 233 239 218 235 239 259 222 239 245 255 270 266 222 171 170 167 173 175 176 168 165 166 169 169 177 182 184 186 185 197 217 245 266 278 249 207 230 275 287 286 339 303 280 205 243
252 230 217 214 219 251 262 243 238 242 245 243 254 258 210 137 146 152 160 161 165 167 164 162 159 158 168 166 167 178 195 211 213 207 223 251 265 277 188 197 234 256 261 245 248 275 325 354 274
252 251 230 252 279 245 244 236 264 259 257 252 220 180 129 131 140 146 151 157 160 159 158 159 157 160 170 171 176 182 176 176 186 214 224 219 170 168 181 172 187 216 265 279 275 255 203 205 257
258 251 241 221 234 255 243 243 253 274 249 228 192 136 133 136 143 143 150 156 157 152 152 157 157 160 167 165 166 164 166 170 189 196 179 148 154 152 79 111 100 268 291 272 251 237 139 152 162
290 242 243 278 210 235 254 268 254 245 213 193 157 142 137 139 144 147 151 153 151 153 154 153 153 157 162 164 167 163 172 207 180 171 147 169 148 155 134 97 49 14 338 266 198 183 180 195 253
272 283 239 225 228 238 215 265 249 109 146 135 144 143 141 146 145 150 151 150 154 158 157 157 157 163 164 158 175 177 195 218 194 178 160 203 166 159 140 81 5 320 329 293 216 222 222 228 250